Location: Boiro
(42.6475°N, 8.8834°W)
Time: 19:32:51
(UTC+01:00)

Vanguard 3 - Pass Details

Date: 08 December 2021
Orbit: 508 x 3260 km, 33.3° (Epoch: 16 January)

Event Time Altitude Azimuth Distance (km) Brightness Sun altitude
Rises 04:33:01 0° 241° (WSW) 6,576 - -46.8°
Reaches altitude 10° 04:37:08 10° 237° (WSW) 5,798 - -46.1°
Exits shadow 04:51:32 52° 199° (SSW) 3,773 10.1 -43.5°
Maximum altitude 04:55:37 58° 165° (SSE) 3,606 10.2 -42.8°
Drops below altitude 10° 05:12:59 10° 93° (E) 5,496 12.0 -39.6°
Sets 05:16:45 0° 90° (E) 6,232 12.6 -38.9°
